Volver al catálogo

STARLINK-31197

ActivoComunicacionesVLEO
NORAD 58859·PAYLOAD·🇺🇸 United States

Lanzado Jan 29, 2024 desde Cape Canaveral Space Force Station

Loading…

Próximos Pases (próximas 24 horas)

TLE

ActualizadoSource: CelesTrak SupGP

Época: Sep 14, 2026, 21:29 UTC

1 58859C 24019G   26257.89562500  .00030419  00000+0  11021-2 0  2578
2 58859  43.0006 260.6794 0001581 267.1151 164.5296 15.27555108    15

Sigue STARLINK-31197 en tiempo real con AllMySat

Download on the App Store